EUTELSAT 117 WEST B

Last updated on Sat Jun 27 2026 00:03:07 GMT+0000 (Coordinated Universal Time)

1 41589U 16038B 26177.64245442 .00000000 00000+0 00000+0 0 9997 2 41589 0.0052 198.0230 0000281 90.3505 100.6951 1.00269678 36754
UTC large
Height (km)
Speed (km/s)
/
Latitude / Longitude
Inclination (degrees)
Orbital Period (minutes)
Azimuth
Elevation
Range (km)
Doppler Factor

Next 0 passes for location: London (51.5072 / 0.1276)

No passes found over London.
EUTELSAT 117 WEST B